Погода Тишневона 2 недели

Тверская область, Россия

23 мая-05 июня
  • 23мая
    Сегодня
    +7°
    +21°
    Ясно и безоблачно
    ВремяПогодаТемператураВлажностьДавлениеВетер, м/сВероятность осадков
    00:00Ясно и безоблачно+11°C55 %745 мм3.3 м/с2 %
    03:00Ясно и безоблачно+8°C60 %746 мм3.3 м/с2 %
    06:00Ясно и безоблачно+9°C64 %747 мм3.3 м/с2 %
    09:00Ясно и безоблачно+15°C52 %748 мм3.1 м/с2 %
    12:00Ясно и безоблачно+19°C38 %749 мм3.9 м/с2 %
    15:00Ясно и безоблачно+20°C35 %749 мм3.7 м/с2 %
    18:00Ясно и безоблачно+20°C37 %748 мм3.8 м/с2 %
    21:00Ясно и безоблачно+15°C61 %749 мм1.9 м/с2 %
  • 24мая
    Пятница
    +6°
    +20°
    Ясно и безоблачно
    ВремяПогодаТемператураВлажностьДавлениеВетер, м/сВероятность осадков
    00:00Ясно и безоблачно+10°C62 %750 мм2.8 м/с2 %
    03:00Ясно и безоблачно+8°C66 %750 мм2.8 м/с2 %
    06:00Ясно и безоблачно+8°C67 %751 мм2.6 м/с2 %
    09:00Ясно и безоблачно+15°C44 %752 мм2.8 м/с2 %
    12:00Ясно и безоблачно+18°C32 %752 мм3.9 м/с2 %
    15:00Ясно и безоблачно+19°C31 %751 мм3.7 м/с2 %
    18:00Ясно и безоблачно+20°C32 %750 мм3.1 м/с2 %
    21:00Ясно и безоблачно+14°C53 %750 мм2.7 м/с2 %
  • 25мая
    Суббота
    +9°
    +23°
    Ясно и безоблачно
    ВремяПогодаТемператураВлажностьДавлениеВетер, м/сВероятность осадков
    00:00Ясно и безоблачно+10°C57 %750 мм3.1 м/с2 %
    03:00Ясно и безоблачно+7°C65 %750 мм2.9 м/с2 %
    06:00Ясно и безоблачно+8°C70 %749 мм2.5 м/с2 %
    09:00Ясно и безоблачно+16°C54 %749 мм1.9 м/с2 %
    12:00Ясно и безоблачно+20°C41 %749 мм2.5 м/с2 %
    15:00Ясно и безоблачно+22°C37 %748 мм3.2 м/с2 %
    18:00Ясно и безоблачно+23°C39 %747 мм2.7 м/с2 %
    21:00Ясно и безоблачно+17°C59 %746 мм2.1 м/с2 %
  • 26мая
    Воскресенье
    +10°
    +25°
    Облачно с прояснениями
    ВремяПогодаТемператураВлажностьДавлениеВетер, м/сВероятность осадков
    00:00Ясно и безоблачно+12°C70 %746 мм2.3 м/с2 %
    03:00Ясно и безоблачно+9°C78 %745 мм2.7 м/с2 %
    06:00Ясно и безоблачно+11°C78 %745 мм2.7 м/с2 %
    09:00Ясно и безоблачно+18°C60 %746 мм2.1 м/с6 %
    12:00Ясно и безоблачно+23°C41 %746 мм2.2 м/с11 %
    15:00Облачно с прояснениями+25°C35 %745 мм2.3 м/с32 %
    18:00Практически безоблачно+25°C39 %745 мм2.4 м/с44 %
    21:00Практически безоблачно+19°C64 %745 мм2.9 м/с24 %
  • 27мая
    Понедельник
    +10°
    +23°
    Практически безоблачно
    ВремяПогодаТемператураВлажностьДавлениеВетер, м/сВероятность осадков
    00:00Облачно с прояснениями+14°C88 %746 мм2.7 м/с4 %
    03:00Небольшая облачность+12°C96 %747 мм2.7 м/с2 %
    06:00Ясно и безоблачно+13°C93 %747 мм2.9 м/с2 %
    09:00Практически безоблачно+18°C73 %748 мм3.3 м/с5 %
    12:00Практически безоблачно+21°C56 %748 мм3.0 м/с26 %
    15:00Практически безоблачно+22°C50 %748 мм2.4 м/с33 %
    18:00Ясно и безоблачно+23°C48 %747 мм2.4 м/с30 %
    21:00Ясно и безоблачно+18°C62 %747 мм2.6 м/с5 %
Мы используем cookies
Соглашаюсь